Regional Weather Roundup
Issued by NWS

Home | Current Version | Previous Version | Text Only | Print | Product List | Glossary Off
Versions: 1 2 3 4 5 6 7 8 9 10 11 12 13 14 15 16 17 18 19 20 21 22 23 24 25 26 27 28 29 30 31 32 33 34 35 36 37 38 39 40 41 42 43 44 45 46 47

000
ASUS45 KTFX 041510
RWRMT
MONTANA REGIONAL WEATHER ROUNDUP
NATIONAL WEATHER SERVICE GREAT FALLS MT
900 AM MDT TUE AUG 04 2015

NOTE: "FAIR" INDICATES FEW OR NO CLOUDS BELOW 12000 FEET WITH NO
SIGNIFICANT WEATHER AND/OR OBSTRUCTIONS TO VISIBILITY.

MTZ001>007-043-041600-
WEST OF THE DIVIDE

CITY           SKY/WX    TMP DP  RH WIND       PRES   REMARKS
KALISPELL      CLOUDY    66  55  67 NE3       29.94R
MISSOULA       CLOUDY    69  46  43 S3        29.99R
BUTTE          PTSUNNY   67  47  48 CALM      30.11R
MULLAN PASS    MOSUNNY   60  41  49 VRB3      30.11R
DEER LODGE       N/A     66  52  59 CALM      30.08R
EUREKA           N/A     73  52  46 CALM      29.93F
HAMILTON         N/A     70  45  40 S8        30.00R
LIBBY            N/A     66  52  59 CALM      29.93S
PLAINS           N/A     70  46  42 CALM      29.95R
$$

MTZ008-052>055-041600-
SOUTHWEST MONTANA

CITY           SKY/WX    TMP DP  RH WIND       PRES   REMARKS
BOZEMAN        CLOUDY    70  54  56 SE3       30.03S
DILLON         MOSUNNY   65  55  70 SW3       30.10R
W YELLOWSTONE  CLOUDY    55  54  94 S5        30.21S
$$

MTZ009-010-012-014-046-048-049-054-041600-
EAST SLOPES AND CENTRAL MONTANA

CITY           SKY/WX    TMP DP  RH WIND       PRES   REMARKS
CUT BANK       CLOUDY    75  44  33 N7        29.92R
GREAT FALLS    CLOUDY    76  47  35 SE7       29.92S
MALMSTROM AFB  CLOUDY    74  48  40 SE7       29.92S
HELENA         CLOUDY    75  48  38 N6        29.97R
CONRAD           N/A     71  55  56 CALM      29.96R
$$

MTZ011-013-016-021-045-047-050-051-041600-
NORTH CENTRAL MONTANA

CITY           SKY/WX    TMP DP  RH WIND       PRES   REMARKS
HAVRE          PTSUNNY   68  54  60 NW3       29.84R
LEWISTOWN      PTSUNNY   74  55  51 NE5       29.96R
CHINOOK          N/A     70  55  60 E6        29.84R
FORT BENTON      N/A     79  46  31 SW7       29.92R
$$

MTZ017>020-022>027-061-062-041600-
NORTHEAST MONTANA

CITY           SKY/WX    TMP DP  RH WIND       PRES   REMARKS
GLASGOW        MOSUNNY   72  50  45 E17       29.89R
JORDAN           N/A     77  55  46 S10       29.88S
SIDNEY         SUNNY    N/A N/A N/A E9        29.94F
WOLF POINT     MOSUNNY   71  51  49 E7        29.92S
MALTA            N/A     73  54  51 NE2       29.83S
POPLAR           N/A     73  50  43 E15G21    29.93R
$$

MTZ028>42-056>058-041600-
SOUTHCENTRAL AND SOUTHEAST MONTANA

CITY           SKY/WX    TMP DP  RH WIND       PRES   REMARKS
BAKER          SUNNY     69  55  60 SE14      29.97S
BILLINGS       CLOUDY    74  50  42 SW13      29.94S
LIVINGSTON     PTSUNNY   70  50  49 W13       30.02S
MILES CITY     MOSUNNY   76  59  55 SE9       29.90S
EKALAKA          N/A     74  56  53 SE15      29.95R
FORSYTH          N/A     75  57  53 E3        29.88F
LAUREL           N/A     72  49  44 S6        29.95R
$$

REGIONAL REPORTS...DAKOTAS

CITY           SKY/WX    TMP DP  RH WIND       PRES   REMARKS
WILLISTON      SUNNY     75  48  38 SE10      29.97S
MINOT          SUNNY     70  49  47 E6        30.01S
DICKINSON      SUNNY     70  55  59 SE10      29.98S
CROSBY         FAIR      72  54  53 SE9       30.00F
BISMARCK       SUNNY     69  55  60 E7        30.00S
GRAND FORKS    MOSUNNY   66  54  65 N6        30.03S
FARGO          SUNNY     68  54  60 CALM      30.02F
BUFFALO SD       N/A     73  59  61 SE10      29.92R
RAPID CITY     CLOUDY    68  62  81 SE7       29.98S
$$

REGIONAL REPORTS...WYOMING/IDAHO/WASHINGTON

CITY           SKY/WX    TMP DP  RH WIND       PRES   REMARKS
GILLETTE       PTSUNNY   70  56  61 S10       29.98S
SHERIDAN       CLOUDY    69  51  52 CALM      29.95S
BUFFALO WY     CLOUDY    68  50  52 CALM      30.02R
CODY           CLOUDY    64  50  59 S6        30.07R
YELLOWSTONE LA   N/A     53  50  89 CALM      30.30R
IDAHO FALLS    SUNNY     66  53  63 CALM      30.15R
SALMON         MOSUNNY   66  52  59 CALM      30.04S
BOISE          MOSUNNY   72  52  49 SE3       30.01R
SPOKANE        PTSUNNY   67  46  47 S10       29.92R
$$

REGIONAL REPORTS...ALBERTA

CITY           SKY/WX    TMP DP  RH WIND       PRES   REMARKS
EDMONTON       CLOUDY    63  57  82 W13       29.84S
CALGARY        CLOUDY    59  52  77 N23       29.95R
LETHBRIDGE     PTSUNNY   73  52  46 W10       29.87R
MEDICINE HAT   CLOUDY    72  55  56 SW10G18   29.79R
WATERTON GATE    N/A     72  45  37 W14G21      N/A
CARDSTON         N/A     72  46  40 W7          N/A
MILK RIVER       N/A     73  50  43 NW5         N/A
$$

REGIONAL REPORTS...SASKATCHEWAN

CITY           SKY/WX    TMP DP  RH WIND       PRES   REMARKS
SWIFT CURRENT  SUNNY     72  54  53 SE17G25   29.85F
REGINA         PTSUNNY   68  52  56 SE16G22   29.97F
SASKATOON      CLOUDY    66  54  63 E12       29.93F
CYPRESS HILLS    N/A     63  50  63 S6          N/A
VAL MARIE        N/A     72  52  49 S12         N/A
ROCKGLEN         N/A     68  52  56 SE16G24     N/A
ASSINIBOIA       N/A    N/A N/A N/A SE10        N/A
$$


USA.gov is the U.S. government's official web portal to all federal, state and local government web resources and services.